Weather History for KNKT - September, 2013

Change the Weather History Date:

Saturday, September 14, 2013

  Actual Average Record
Temperature  
Mean Temperature 72 °F -  
Max Temperature 80 °F 80 °F 90 °F (2011)
Min Temperature 66 °F 64 °F 57 °F (1996)
Cooling Degree Days 8    
Growing Degree Days 22 (Base 50)    
Moisture  
Dew Point 62 °F    
Average Humidity 71    
Maximum Humidity 81    
Minimum Humidity 56    
Precipitation  
Precipitation 0.00 in - - ()
Sea Level Pressure  
Sea Level Pressure 30.01 in    
Wind  
Wind Speed 10 mph (NE)    
Max Wind Speed 17 mph    
Max Gust Speed 22 mph    
Visibility 10 miles    
Events      
Averages and records for this station are not official NWS values.
T = Trace of Precipitation, MM = Missing Value Source: NWS Daily Summary

Daily Weather History Graph

Daily Weather History Graph

Search for Another Location

Airport or City:

Trip Planner

Search our weather history database for the weather conditions in past years. The results will help you decide how hot, cold, wet, or windy it might be!

Date:

Astronomy

Sep. 14, 2013 Rise Set
Actual Time 6:49 AM EDT 7:15 PM EDT
Civil Twilight 6:24 AM EDT 7:40 PM EDT
Nautical Twilight 5:54 AM EDT 8:10 PM EDT
Astronomical Twilight 5:24 AM EDT 8:40 PM EDT
Moon 3:46 PM EDT (9/14) 1:28 AM EDT (9/14)
Length of Visible Light 13h 16m
Length of Day
12h 25m
Waxing Gibbous, 72% of the Moon is Illuminated
Sep 14
Waxing Gibbous
Sep 19
Full
Sep 26
Last Quarter
Oct 4
New
Oct 11
First Quarter

Hourly Weather History & Observations

Time (EDT) Temp. Dew Point Humidity Pressure Visibility Wind Dir Wind Speed Gust Speed Precip Events Conditions
12:54 AM 71.1 °F 64.9 °F 81% 29.84 in 10.0 mi NE 10.4 mph - N/A   Partly Cloudy
1:54 AM 70.0 °F 64.0 °F 81% 29.85 in 10.0 mi NE 8.1 mph - N/A   Clear
2:54 AM 72.0 °F 62.1 °F 71% 29.85 in 10.0 mi NE 11.5 mph - N/A   Mostly Cloudy
3:54 AM 73.0 °F 63.0 °F 71% 29.87 in 10.0 mi North 9.2 mph - N/A   Mostly Cloudy
4:54 AM 72.0 °F 63.0 °F 73% 29.87 in 10.0 mi North 12.7 mph - N/A   Mostly Cloudy
5:54 AM 68.0 °F 61.0 °F 78% 29.88 in 10.0 mi NNE 13.8 mph 21.9 mph N/A   Scattered Clouds
6:54 AM 66.9 °F 59.0 °F 76% 29.92 in 10.0 mi NNE 12.7 mph 19.6 mph N/A   Mostly Cloudy
7:54 AM 66.0 °F 57.9 °F 75% 29.95 in 10.0 mi North 12.7 mph - N/A   Mostly Cloudy
8:54 AM 66.0 °F 57.9 °F 75% 29.97 in 10.0 mi North 10.4 mph - N/A   Mostly Cloudy
9:54 AM 69.1 °F 59.0 °F 70% 29.99 in 10.0 mi NNE 13.8 mph - N/A   Overcast
10:54 AM 72.0 °F 60.1 °F 66% 30.00 in 10.0 mi North 17.3 mph - N/A   Partly Cloudy
11:54 AM 75.0 °F 61.0 °F 62% 30.00 in 10.0 mi NE 15.0 mph - N/A   Partly Cloudy
12:54 PM 78.1 °F 62.1 °F 58% 30.01 in 10.0 mi North 13.8 mph - N/A   Partly Cloudy
1:54 PM 78.1 °F 62.1 °F 58% 30.01 in 10.0 mi NE 13.8 mph - N/A   Scattered Clouds
2:54 PM 79.0 °F 62.1 °F 56% 30.00 in 10.0 mi NE 12.7 mph 18.4 mph N/A   Scattered Clouds
3:54 PM 77.0 °F 62.1 °F 60% 30.01 in 10.0 mi ENE 6.9 mph - N/A   Mostly Cloudy
4:54 PM 75.9 °F 63.0 °F 64% 30.01 in 10.0 mi ENE 9.2 mph - N/A   Mostly Cloudy
5:54 PM 75.0 °F 62.1 °F 64% 30.03 in 10.0 mi NE 9.2 mph - N/A   Overcast
6:54 PM 73.0 °F 64.0 °F 73% 30.04 in 10.0 mi East 6.9 mph - N/A   Mostly Cloudy
7:54 PM 71.1 °F 62.1 °F 73% 30.06 in 10.0 mi East 4.6 mph - N/A   Mostly Cloudy
8:54 PM 71.1 °F 62.1 °F 73% 30.09 in 10.0 mi East 5.8 mph - N/A   Overcast
9:36 PM 71.1 °F 62.1 °F 73% 30.12 in 10.0 mi East 6.9 mph - N/A   Overcast
9:43 PM 71.1 °F 62.1 °F 73% 30.12 in 10.0 mi East 9.2 mph - N/A   Scattered Clouds
9:54 PM 71.1 °F 62.1 °F 73% 30.11 in 10.0 mi East 6.9 mph - N/A   Scattered Clouds
10:01 PM 71.1 °F 62.1 °F 73% 30.12 in 10.0 mi East 5.8 mph - N/A   Overcast
10:08 PM 71.1 °F 62.1 °F 73% 30.12 in 10.0 mi East 5.8 mph - N/A   Scattered Clouds
10:54 PM 70.0 °F 62.1 °F 76% 30.12 in 10.0 mi ENE 5.8 mph - N/A   Scattered Clouds
11:01 PM 70.0 °F 62.1 °F 76% 30.13 in 10.0 mi ENE 3.5 mph - N/A   Mostly Cloudy
11:09 PM 70.0 °F 62.1 °F 76% 30.13 in 10.0 mi ENE 5.8 mph - N/A   Scattered Clouds
11:54 PM 69.1 °F 62.1 °F 78% 30.12 in 10.0 mi NE 8.1 mph - N/A   Scattered Clouds